FW4829 Weather Reports


time (UTC)temp
C
wind
direction
speed
KPH
gust
KPH
rain 1hr
cm
rain 24hr
cm
rain mn
cm
humidity
%
barometer
mb
20260505124508 10 348 1.6 8.0 0.00 0.00 0.00 97 1015.5
20260505123007 10 23 4.8 9.7 0.00 0.00 0.00 97 1015.4
20260505121504 10 23 0.0 6.4 0.00 0.00 0.00 97 1015.4
20260505120004 10 350 0.0 6.4 0.00 0.00 0.00 96 1015.5
20260505114502 10 31 0.0 4.8 0.00 0.00 0.00 96 1015.4
20260505113000 10 5 0.0 3.2 0.00 0.00 0.00 96 1015.4
20260505111558 10 14 1.6 3.2 0.00 0.00 0.00 96 1015.2
20260505101552 10 319 0.0 3.2 0.00 0.00 0.00 95 1014.7
20260505100051 10 3 0.0 3.2 0.00 0.00 0.00 95 1014.7
20260505094550 10 335 0.0 1.6 0.00 0.00 0.00 95 1014.6
20260505093047 11 322 0.0 3.2 0.00 0.00 0.00 95 1014.5
20260505091558 11 46 0.0 3.2 0.00 0.00 0.00 95 1014.4
20260505090055 11 360 0.0 0.0 0.00 0.00 0.00 95 1014.2
20260505084641 11 360 0.0 0.0 0.00 0.00 0.00 95 1014.2
20260505083058 10 1 0.0 6.4 0.00 0.00 0.00 95 1014.0
20260505081553 10 346 0.0 3.2 0.00 0.00 0.00 95 1014.2
20260505080044 10 34 0.0 4.8 0.00 0.00 0.00 95 1014.0
20260505074532 10 33 1.6 4.8 0.00 0.00 0.00 94 1013.9
20260505073040 10 335 0.0 3.2 0.00 0.00 0.00 94 1013.7
20260505071536 11 359 0.0 3.2 0.00 0.00 0.00 93 1013.4
20260505070023 11 13 1.6 4.8 0.00 0.00 0.00 93 1013.3
20260505064518 11 4 1.6 4.8 0.00 0.00 0.00 92 1013.2
20260505063016 11 23 1.6 4.8 0.00 0.00 0.00 91 1012.9
20260505061519 12 25 0.0 4.8 0.00 0.00 0.00 90 1012.7
20260505060015 12 347 0.0 4.8 0.00 0.00 0.00 89 1012.7
20260505054509 12 359 3.2 4.8 0.00 0.00 0.00 88 1012.6
20260505053006 13 17 4.8 11.3 0.00 0.00 0.00 86 1012.6
20260505051504 13 17 0.0 4.8 0.00 0.00 0.00 86 1012.6
20260505041603 16 14 1.6 3.2 0.00 0.00 0.00 80 1012.2
20260505040057 16 65 0.0 6.4 0.00 0.00 0.00 79 1011.8
20260505034552 17 42 0.0 6.4 0.00 0.00 0.00 78 1011.6
20260505033051 18 60 3.2 8.0 0.00 0.00 0.00 75 1011.4
20260505031552 20 358 3.2 6.4 0.00 0.00 0.00 75 1011.2
20260505030108 20 261 0.0 3.2 0.00 0.00 0.00 73 1011.1
20260505024550 21 231 0.0 6.4 0.00 0.00 0.00 71 1011.0
20260505023045 22 179 1.6 6.4 0.00 0.00 0.00 68 1010.8
20260505021543 22 216 1.6 6.4 0.00 0.00 0.00 66 1010.8
20260505020043 22 210 1.6 8.0 0.00 0.00 0.00 67 1010.9
20260505014601 22 173 1.6 6.4 0.00 0.00 0.00 66 1010.8
20260505013048 22 215 0.0 9.7 0.00 0.00 0.00 67 1010.9
20260505011541 22 261 3.2 11.3 0.00 0.00 0.00 67 1011.0
20260505010039 22 177 1.6 9.7 0.00 0.00 0.00 66 1010.9
20260505004545 22 229 1.6 6.4 0.00 0.00 0.00 65 1011.1
20260505003050 22 260 3.2 8.0 0.00 0.00 0.00 63 1010.9
20260505001526 22 202 1.6 11.3 0.00 0.00 0.00 65 1011.0
20260505000030 22 236 3.2 16.1 0.00 0.00 0.00 66 1011.2
20260504234621 21 182 4.8 11.3 0.00 0.00 0.00 66 1011.2
20260504233022 22 101 1.6 8.0 0.00 0.00 0.00 64 1011.2
20260504231518 21 208 1.6 8.0 0.00 0.00 0.00 66 1011.3
20260504230015 21 207 3.2 9.7 0.00 0.00 0.00 67 1011.4
20260504224517 21 221 3.2 12.9 0.00 0.00 0.00 67 1011.5
20260504223014 20 238 3.2 11.3 0.00 0.00 0.00 68 1011.9
20260504221508 20 233 1.6 11.3 0.00 0.00 0.00 69 1012.1
20260504220006 20 272 3.2 11.3 0.00 0.00 0.00 69 1012.2
20260504214504 20 262 1.6 11.3 0.00 0.00 0.00 70 1012.2
20260504213006 18 288 3.2 12.9 0.00 0.00 0.00 70 1012.4
20260504211652 18 207 1.6 11.3 0.00 0.00 0.00 71 1012.6
20260504210057 18 186 1.6 12.9 0.00 0.00 0.00 73 1012.8
20260504204556 18 98 4.8 12.9 0.00 0.00 0.00 72 1012.8
20260504203053 17 130 3.2 9.7 0.00 0.00 0.00 74 1013.0
20260504201555 17 151 3.2 11.3 0.00 0.00 0.00 75 1013.0
20260504200052 16 229 4.8 11.3 0.00 0.00 0.00 76 1013.2
20260504194551 16 136 4.8 11.3 0.00 0.00 0.00 76 1013.2
20260504193045 16 72 1.6 11.3 0.00 0.00 0.00 78 1013.2
20260504191641 16 209 3.2 11.3 0.00 0.00 0.00 79 1013.3
20260504190044 15 177 0.0 11.3 0.00 0.00 0.00 81 1013.3
20260504184546 15 148 4.8 14.5 0.00 0.00 0.00 81 1013.5
20260504183035 14 219 6.4 11.3 0.00 0.00 0.00 82 1013.3
20260504181535 14 194 3.2 11.3 0.00 0.00 0.00 83 1013.3
20260504180032 13 148 6.4 16.1 0.00 0.00 0.00 82 1013.3
20260504174528 13 108 4.8 14.5 0.00 0.00 0.00 84 1013.4
20260504173026 13 199 3.2 12.9 0.00 0.00 0.00 85 1013.4
20260504171523 13 194 3.2 11.3 0.00 0.00 0.00 85 1013.2